LYNK TOWER 4 (55034 NORAD) Tracking and Keplerian Element Data

This shows tracking and keplerian element data for the satellite.

Feedback or suggestion? Click here.




ElementValue
Catalog55034
NameLYNK TOWER 4
Epoch Orbit1242
Epoch Day84.75777131
Epoch Year2023
RAAN145.4869
Inclination97.4891
Eccentricity0.0010863
Argument of Perigee300.2837
Mean Anonmoly59.7319
Mean Motion15.13208729
Decay Rate5.466E-05
L11 55034U 23001AB 23084.75777131 .00005466 00000+0 31106-3 0 9992
L22 55034 97.4891 145.4869 0010863 300.2837 59.7319 15.13208729 12426



Live tracking and technical data element details for LYNK TOWER 4 (NORAD 55034). LYNK TOWER 4 can be tracked NOW for your location showing map with azimuth and elevation plus other details from your city location.







IsCatalogInMostPopularTable: catalog: 55034, numindb: 11
Update: records affected: 1



GetName: 55034 LYNK TOWER 4

Hit Count: updated at: Mon, 27 Mar 2023 07:44:01 GMT